Tracking 17155 objects as of 30-July-2015
HD Live streaming from Space Station

MOZHAYETS

Track MOZHAYETS now!
10-day predictions
MOZHAYETS is classified as:


NORAD ID: 27560
Int'l Code: 2002-054B
Perigee: 679.2 km
Apogee: 739.0 km
Inclination: 98.1 °
Period: 98.8 minutes
Semi major axis: 7080 km
RCS: 1.03 m2 (large)
Launch date: November 28, 2002
Source: Commonwealth of Independent States (former USSR) (CIS)
Your satellite tracking list
Your tracking list is empty





NASA's NSSDC Master Catalog

Two Line Element Set (TLE):
1 27560U 02054B   15211.32353521  .00000258  00000-0  66369-4 0  9994
2 27560 098.1101 348.3206 0042205 090.5210 270.0824 14.57277353671807

Source of the keplerian elements: AFSPC

N2YO: 301